SCP
3 4 5 5 4 4 4 4 3 3 3 3 3 2 2 1 1 0 0 0 0 0 0 0 1 0 0 1 2 2 2 2 1 0 0 1 1 1 1 1 1 1 1
3 3 4 4 3 3 3 4 3 2 2 3 2 2 2 1 1 0 0 0 0 0 0 0 0 0 0 1 1 1 2 1 1 0 0 0 1 1 1 1 1 1 1
2 3 3 3 3 3 3 3 3 2 2 2 2 2 2 1 1 0 0 0 0 0 0 0 0 0 0 1 1 1 1 1 1 0 1 1 1 1 1 1 1 1 1
2 2 3 3 4 4 4 3 3 2 2 1 1 1 1 1 0 0 0 0 0 0 0 0 1 1 1 1 1 1 1 0 0 1 1 1 1 1 1 1 1 1 1
2 2 3 4 4 4 4 3 2 2 1 1 1 1 1 1 0 0 0 0 0 0 0 0 1 1 0 0 1 1 0 0 0 1 1 1 1 1 1 1 1 1 1
3 3 3 4 4 3 3 2 2 2 1 1 1 1 0 1 0 0 0 0 0 0 0 0 0 0 0 0 0 0 0 0 0 0 1 1 1 1 1 1 1 1 1
3 3 4 4 3 3 2 2 2 1 1 0 0 0 0 0 0 0 0 0 0 0 0 0 0 0 0 0 0 0 0 0 0 0 0 0 0 1 1 1 1 1 1
3 3 4 3 3 3 2 2 1 1 1 0 0 0 0 0 0 0 0 0 0 0 0 0 0 0 0 0 0 0 0 1 1 1 1 1 0 0 1 1 1 0 0
3 3 3 3 3 2 2 1 1 1 1 0 1 0 0 0 0 0 0 0 0 0 0 0 0 0 1 1 1 1 1 1 1 1 1 1 1 1 1 1 1 0 0
2 2 3 3 2 2 1 1 1 1 1 1 1 1 1 1 1 0 0 0 0 1 1 1 1 1 1 1 1 1 1 1 1 1 1 1 1 1 1 1 1 1 1
2 2 2 2 2 1 1 1 1 1 0 1 1 1 1 1 1 1 1 1 1 1 1 1 0 0 0 0 0 0 0 1 1 1 1 2 2 2 1 1 1 1 1
2 2 2 2 1 1 1 1 1 0 0 1 1 1 1 1 1 1 1 1 1 1 1 0 0 0 0 0 0 0 0 1 1 1 1 2 2 2 2 2 1 1 1
2 2 2 1 1 1 1 1 0 0 0 1 1 1 1 1 1 1 1 1 1 1 0 0 0 0 0 1 1 1 1 1 1 1 2 2 3 3 3 3 2 2 1
2 2 1 1 1 1 1 1 1 0 1 1 1 1 1 1 1 1 1 1 1 0 1 1 1 1 1 1 1 1 1 1 2 2 2 3 3 4 4 4 3 3 2
1 1 1 1 1 1 1 1 1 1 1 1 1 1 1 1 1 1 1 0 1 1 1 1 1 1 1 1 1 1 1 2 2 3 3 3 3 3 3 3 3 3 3
1 1 1 1 1 1 1 1 1 1 1 1 1 1 1 1 1 1 0 0 1 1 1 2 2 2 1 1 0 1 1 2 3 3 3 3 2 2 1 1 1 1 2
1 1 1 1 1 1 1 1 1 1 1 1 1 1 1 1 1 1 1 1 1 1 2 2 2 2 2 1 0 0 1 2 2 3 3 2 2 1 1 1 0 0 1
1 1 1 1 1 1 1 1 1 1 1 1 1 1 2 2 2 2 1 1 1 2 2 2 2 2 2 1 0 0 1 1 2 2 2 1 1 1 1 1 1 1 1
1 1 1 1 1 2 2 2 2 2 2 1 1 1 2 2 2 2 2 1 1 1 2 2 2 2 2 1 0 0 1 1 2 2 1 1 1 0 0 0 1 1 1
1 1 1 2 2 2 2 2 2 2 2 2 2 2 2 2 2 2 2 1 1 1 1 1 1 1 1 1 0 0 1 1 1 1 1 1 0 0 0 0 0 0 0
1 1 2 2 2 2 2 2 2 2 2 2 2 2 2 2 2 2 2 1 1 1 1 1 1 1 1 1 0 0 0 1 1 1 1 1 0 0 0 0 0 0 0
2 2 2 2 2 2 2 2 2 2 2 2 2 2 2 2 2 2 2 2 1 1 1 1 1 1 1 0 0 0 0 0 0 1 1 1 0 0 0 0 0 0 0
2 2 2 2 2 2 2 2 2 3 3 4 3 3 2 2 2 2 3 2 2 1 1 0 0 1 1 0 0 0 0 0 0 0 0 0 0 0 0 0 0 0 0
2 2 2 2 2 2 2 3 3 4 5 5 4 3 2 2 2 2 3 3 2 1 1 0 0 0 0 0 0 0 0 0 0 0 0 0 0 0 0 0 0 0 0
2 1 1 2 2 2 3 4 4 4 5 4 3 2 1 2 2 2 3 3 2 1 0 0 0 0 0 0 0 0 0 0 0 0 0 0 0 0 0 0 1 1 1
1 1 1 2 2 3 5 5 5 4 4 3 2 1 1 2 2 2 2 2 1 0 0 0 0 0 0 0 0 0 0 0 0 0 0 1 1 1 1 1 1 1 1
Wind_Speed
9 9 10 10 10 9 10 10 9 8 6 5 5 5 5 4 4 4 4 3 3 3 1 1 2 1 2 2 2 2 1 2 2 3 3 3 4 4 4 4 4 4 4
10 10 10 10 10 10 10 10 10 8 7 5 3 3 4 3 3 3 4 3 3 2 2 1 0 1 1 1 2 3 4 2 2 4 4 3 4 4 3 3 4 3 3
11 11 11 10 10 10 10 8 8 8 7 6 5 5 4 4 4 4 4 3 2 2 0 1 0 1 2 1 2 2 3 4 2 2 4 4 3 1 3 3 2 2 2
12 12 12 12 11 10 9 9 8 7 7 6 5 5 4 4 4 3 3 3 2 2 2 1 1 1 1 1 2 2 3 4 3 1 1 3 5 5 3 3 3 3 3
13 13 12 11 11 10 9 9 8 7 6 5 5 5 4 4 4 4 5 3 3 3 2 2 1 0 1 2 2 2 3 3 4 4 3 3 3 5 6 5 3 3 3
13 13 13 11 10 10 10 10 9 8 7 6 6 5 5 5 5 4 5 4 3 3 3 2 1 1 1 1 1 2 2 3 3 4 4 4 4 4 5 6 6 5 4
14 14 14 13 12 12 12 11 10 9 8 7 6 6 6 6 6 5 5 3 3 3 3 2 1 0 0 0 1 1 2 2 3 4 4 4 4 4 5 6 6 6 5
15 15 15 14 14 14 13 12 11 10 9 8 7 6 6 5 4 4 3 3 2 2 3 2 1 1 1 1 1 2 1 1 3 4 4 5 4 4 5 6 7 7 6
16 16 15 15 14 14 14 13 12 11 10 9 8 7 6 4 4 4 4 3 2 2 3 2 2 1 1 2 3 2 2 2 3 3 3 4 4 4 5 5 6 7 8
17 16 15 15 14 13 13 13 13 12 11 10 8 7 7 6 5 4 3 2 3 2 3 2 2 2 2 2 3 4 2 3 3 3 4 5 5 4 5 5 6 6 8
17 16 15 14 14 14 14 13 13 12 11 10 9 8 7 7 6 5 5 5 4 4 3 3 3 3 3 3 3 4 3 4 4 4 4 5 5 5 6 5 6 6 7
16 16 16 15 14 14 14 14 13 12 12 11 10 9 8 8 7 7 6 5 5 5 4 4 3 3 3 3 4 5 4 5 5 5 5 6 5 5 7 6 7 6 6
17 16 16 15 14 15 14 14 13 13 12 11 11 10 9 8 8 7 6 6 6 5 5 4 4 4 4 4 4 4 5 5 5 5 6 6 6 7 6 7 7 7 7
16 16 15 15 14 14 14 14 13 13 12 12 11 11 10 9 8 7 7 7 6 6 6 5 5 5 5 5 5 5 5 6 6 6 7 7 7 7 7 7 8 8 8
18 17 16 15 15 14 14 14 13 13 12 12 11 11 10 9 8 8 7 7 7 7 6 6 6 5 5 5 4 5 6 6 7 7 8 8 6 6 7 8 8 8 8
19 18 17 17 16 16 15 14 14 13 13 13 12 11 10 10 9 9 8 8 7 7 6 6 6 6 5 3 2 6 8 7 8 8 8 8 8 9 12 12 12 11 11
19 19 18 17 16 16 15 15 15 14 13 13 12 11 11 11 10 10 9 8 8 7 7 7 7 7 5 5 6 7 9 9 8 8 8 8 6 6 9 9 14 15 17
18 18 17 17 16 16 15 14 14 14 14 13 12 12 11 11 10 10 9 8 7 7 7 7 7 7 6 7 8 7 10 10 9 9 9 9 9 8 7 10 11 11 11
16 16 16 16 15 15 15 15 15 14 14 13 13 12 12 11 11 10 9 8 7 7 7 7 7 8 7 7 8 8 9 8 10 9 9 10 10 5 5 10 12 12 12
12 12 13 14 15 15 15 15 15 15 14 14 13 12 11 11 11 10 8 7 7 7 7 7 7 8 8 6 8 8 8 9 8 8 9 10 11 7 6 10 12 13 12
11 11 12 13 13 14 15 15 14 14 13 12 12 11 11 11 10 9 8 7 7 7 7 7 7 8 8 7 8 9 8 9 9 8 8 6 9 10 10 11 12 13 12
10 12 11 11 12 14 15 14 14 13 12 12 12 11 11 10 9 9 8 8 7 8 8 8 8 7 7 7 7 10 11 10 10 10 9 6 4 8 10 11 12 12 10
9 10 11 11 11 12 13 13 12 11 11 11 11 10 10 9 8 9 9 8 8 7 7 6 6 6 6 6 11 12 13 13 10 10 9 10 8 9 11 14 15 12 10
8 9 11 11 11 11 11 10 10 11 11 11 10 10 9 9 9 7 8 7 7 7 7 6 7 7 6 6 5 6 8 11 12 10 10 12 15 13 13 11 10 10 9
6 7 8 9 10 10 10 10 10 10 10 10 9 9 9 8 7 8 6 7 6 5 6 7 6 7 7 4 4 6 7 7 7 8 9 10 9 9 8 8 8 8 8
6 7 8 9 9 10 9 9 9 10 9 9 8 7 7 6 6 6 7 7 8 5 7 8 9 8 7 7 7 7 9 9 7 7 11 11 10 10 9 9 8 8 8
Wind_Direction
155 153 157 154 152 152 154 152 151 150 157 157 162 156 149 151 140 131 122 133 125 121 114 94 108 354 44 6 344 312 296 310 319 284 269 237 226 235 237 242 257 246 247
153 155 156 159 159 157 155 153 158 159 169 156 150 139 135 145 126 124 127 140 138 155 164 97 164 64 51 42 360 329 314 325 332 312 297 266 206 200 215 228 231 253 259
165 165 163 165 165 161 161 156 156 161 163 155 153 143 147 162 155 152 149 141 154 162 100 161 332 11 304 42 348 330 325 316 313 328 313 307 319 316 191 212 233 256 275
170 170 167 166 165 160 155 152 156 158 157 168 170 170 175 170 143 157 130 136 140 149 153 165 145 303 334 14 305 31 319 309 304 273 300 315 333 306 288 218 200 219 252
174 171 168 166 163 158 156 155 153 152 157 167 164 178 175 153 147 147 129 141 124 134 141 143 137 153 327 17 356 357 324 312 315 317 307 290 264 265 282 290 291 267 253
172 169 166 165 165 163 163 159 158 156 158 165 163 173 157 155 152 159 151 168 147 143 127 132 129 178 28 35 334 323 310 328 328 313 307 299 297 297 294 290 285 287 287
171 169 168 170 170 170 169 166 164 160 160 161 162 160 158 162 166 175 163 185 164 152 133 137 153 142 81 320 313 284 326 313 308 293 299 304 300 304 297 294 296 297 286
174 174 174 174 175 173 173 172 170 165 164 163 158 156 165 177 162 166 169 173 175 125 128 167 182 204 241 263 272 272 275 299 294 295 306 294 292 299 293 294 298 293 285
177 177 177 177 177 176 177 177 173 168 167 164 158 162 170 165 146 154 187 169 157 159 166 194 207 216 235 267 263 280 289 289 280 286 271 280 294 283 288 287 287 292 294
179 178 178 178 179 178 178 178 175 171 169 169 174 168 170 168 168 184 166 163 175 178 192 209 217 227 239 244 261 260 250 274 275 286 301 293 288 296 282 280 280 280 285
180 178 177 178 178 178 176 177 176 174 174 176 177 173 177 175 180 184 182 184 191 192 204 210 222 238 247 249 254 272 270 269 279 279 277 278 291 289 291 281 276 274 277
180 179 177 177 179 180 180 179 179 179 179 178 178 181 182 184 190 188 189 193 197 203 205 214 227 239 242 248 256 264 269 271 275 278 280 277 272 272 276 284 281 280 282
182 180 177 178 182 183 182 180 183 182 181 179 183 184 187 190 196 192 192 199 202 207 209 218 231 239 244 246 250 260 267 270 272 275 276 277 277 273 276 275 278 279 273
185 183 181 184 185 184 182 182 184 183 181 183 188 187 191 192 195 196 195 200 206 212 215 223 231 239 245 247 249 253 260 267 269 270 272 272 271 272 277 272 269 274 280
187 189 187 186 186 184 184 185 184 182 182 185 190 189 191 190 195 196 200 202 210 217 219 228 233 238 242 246 261 268 264 266 269 269 268 268 268 284 279 285 290 286 280
190 191 191 188 188 186 185 183 183 180 182 188 191 189 190 191 195 199 202 205 212 221 224 231 240 245 249 129 215 270 277 273 271 272 273 270 241 235 230 244 259 271 277
192 192 192 191 189 188 185 184 182 180 185 191 191 189 191 194 197 201 201 207 213 218 225 233 239 247 238 187 217 239 267 272 273 274 275 277 280 260 263 243 230 240 241
194 193 192 191 189 186 184 184 180 181 186 191 192 191 193 195 196 200 204 210 216 221 228 237 244 251 242 196 219 233 251 263 267 268 269 271 277 275 275 281 277 271 260
195 192 191 188 184 182 180 179 180 183 187 191 192 192 194 196 197 201 205 209 216 225 232 237 245 252 248 208 215 236 263 260 262 264 265 267 270 259 234 266 273 276 276
193 189 185 182 178 177 174 178 183 185 191 193 192 191 193 197 201 202 205 207 215 228 239 241 246 252 258 220 209 224 262 269 270 266 260 243 243 255 225 259 271 275 279
184 180 177 177 176 171 173 182 185 189 192 190 188 189 193 198 200 200 204 210 219 229 242 250 251 250 253 239 216 220 256 273 277 280 278 273 199 223 232 246 264 272 284
176 175 173 173 171 171 175 183 189 188 185 184 186 189 192 199 195 199 206 211 221 228 235 242 252 251 241 240 226 215 230 258 273 276 280 288 200 228 241 245 255 262 270
170 169 167 165 166 173 180 184 184 180 180 182 185 188 192 198 201 202 207 212 216 236 243 247 256 261 259 232 211 219 227 232 248 270 282 288 273 259 253 242 242 248 252
162 164 163 162 165 172 179 181 173 173 177 181 184 187 192 198 200 211 215 222 226 234 246 255 264 271 268 268 258 241 229 224 236 256 263 247 246 245 259 265 241 239 252
152 157 161 162 162 165 169 170 168 168 175 180 184 190 196 200 203 211 223 232 237 250 261 272 277 280 282 313 352 307 296 301 316 309 281 274 269 263 259 261 261 260 257
146 153 157 155 154 158 160 162 162 169 176 180 186 193 199 195 208 215 218 215 235 229 233 248 267 279 282 292 293 282 277 277 280 277 271 273 273 275 276 277 274 265 262